Weather History for Reno, NV

Change the Weather History Date:

Tuesday, December 18, 2012

  Actual Average Record
Temperature  
Mean Temperature 30 °F 35 °F  
Max Temperature 37 °F 45 °F 64 °F (1917)
Min Temperature 23 °F 25 °F -1 °F (1908)
Degree Days  
Heating Degree Days 35 30  
Month to date heating degree days 443 523  
Since 1 July heating degree days 1242 1626  
Cooling Degree Days 0 0  
Month to date cooling degree days 0 0  
Year to date cooling degree days 1272 839  
Moisture  
Dew Point 16 °F    
Average Humidity 55    
Maximum Humidity 75    
Minimum Humidity 35    
Precipitation  
Precipitation 0.00 in 0.04 in 0.85 in (2005)
Month to date precipitation 1.00 0.55  
Year to date precipitation 4.66 6.92  
Snow  
Snow 0.00 in 0.10 in 5.60 in (1978)
Month to date snowfall 0.4 2.1  
Since 1 July snowfall 1.2 5.6  
Snow Depth 0.00 in    
Sea Level Pressure  
Sea Level Pressure 29.93 in    
Wind  
Wind Speed 8 mph (NNW)    
Max Wind Speed 25 mph    
Max Gust Speed 30 mph    
Visibility 10 miles    
Events      
T = Trace of Precipitation, MM = Missing Value Source: NWS Daily Summary

Daily Weather History Graph

Daily Weather History Graph

Search for Another Location

Airport:

Trip Planner

Search our weather history database for the weather conditions in past years. The results will help you decide how hot, cold, wet, or windy it might be!

Date:

Astronomy

Dec. 18, 2012 Rise Set
Actual Time 7:14 AM PST 4:37 PM PST
Civil Twilight 6:44 AM PST 5:07 PM PST
Nautical Twilight 6:10 AM PST 5:41 PM PST
Astronomical Twilight 5:37 AM PST 6:14 PM PST
Moon 10:58 AM PST (12/18) 11:07 PM PST (12/18)
Length of Visible Light 10h 23m
Length of Day
9h 22m
Waxing Crescent, 36% of the Moon is Illuminated
Dec 18
Waxing Crescent
Dec 19
First Quarter
Dec 28
Full
Jan 4
Last Quarter
Jan 11
New

Hourly Weather History & Observations

Time (PST) Temp. Windchill Dew Point Humidity Pressure Visibility Wind Dir Wind Speed Gust Speed Precip Events Conditions
12:55 AM 33.1 °F 21.5 °F 23.0 °F 66% 29.87 in 10.0 mi NNW 19.6 mph - N/A   Mostly Cloudy
1:55 AM 32.0 °F 21.2 °F 23.0 °F 69% 29.87 in 10.0 mi North 16.1 mph 24.2 mph N/A   Mostly Cloudy
2:55 AM 33.1 °F 30.0 °F 21.0 °F 61% 29.85 in 10.0 mi WNW 3.5 mph - N/A   Mostly Cloudy
3:55 AM 32.0 °F 24.8 °F 19.9 °F 61% 29.85 in 10.0 mi North 8.1 mph - N/A   Mostly Cloudy
4:55 AM 28.9 °F 18.2 °F 19.9 °F 69% 29.86 in 10.0 mi North 13.8 mph - N/A   Scattered Clouds
5:55 AM 28.9 °F 25.2 °F 21.0 °F 72% 29.88 in 10.0 mi ENE 3.5 mph - N/A   Mostly Cloudy
6:55 AM 28.9 °F 23.9 °F 19.9 °F 69% 29.89 in 10.0 mi North 4.6 mph - N/A   Overcast
7:55 AM 28.9 °F 21.9 °F 19.9 °F 69% 29.89 in 10.0 mi North 6.9 mph - N/A   Mostly Cloudy
8:55 AM 30.0 °F - 18.0 °F 61% 29.91 in 10.0 mi Calm Calm - N/A   Mostly Cloudy
9:55 AM 30.9 °F 26.2 °F 19.0 °F 61% 29.91 in 10.0 mi North 4.6 mph - N/A   Mostly Cloudy
10:55 AM 33.1 °F 25.5 °F 17.1 °F 52% 29.90 in 10.0 mi NNW 9.2 mph - N/A   Mostly Cloudy
11:55 AM 35.1 °F 28.6 °F 14.0 °F 42% 29.86 in 10.0 mi North 8.1 mph - N/A   Mostly Cloudy
12:55 PM 36.0 °F 32.1 °F 10.9 °F 36% 29.85 in 10.0 mi Variable 4.6 mph - N/A   Mostly Cloudy
1:55 PM 35.1 °F 25.5 °F 14.0 °F 42% 29.84 in 10.0 mi North 15.0 mph - N/A   Mostly Cloudy
2:55 PM 32.0 °F 19.8 °F 16.0 °F 52% 29.88 in 10.0 mi NNW 20.7 mph 28.8 mph N/A   Mostly Cloudy
3:55 PM 30.9 °F 21.2 °F 16.0 °F 54% 29.91 in 10.0 mi North 12.7 mph 17.3 mph N/A   Mostly Cloudy
4:55 PM 28.9 °F 17.7 °F 14.0 °F 54% 29.95 in 10.0 mi NNW 15.0 mph - N/A   Scattered Clouds
5:55 PM 28.9 °F 21.9 °F 12.9 °F 51% 29.99 in 10.0 mi NW 6.9 mph - N/A   Partly Cloudy
6:55 PM 28.0 °F 21.7 °F 12.0 °F 51% 30.01 in 10.0 mi NW 5.8 mph - N/A   Partly Cloudy
7:55 PM 27.0 °F 20.5 °F 10.9 °F 51% 30.05 in 10.0 mi WNW 5.8 mph - N/A   Partly Cloudy
8:55 PM 27.0 °F 21.6 °F 10.9 °F 51% 30.06 in 10.0 mi North 4.6 mph - N/A   Partly Cloudy
9:55 PM 26.1 °F 17.6 °F 10.0 °F 51% 30.08 in 10.0 mi NNW 8.1 mph - N/A   Clear
10:55 PM 24.1 °F 17.0 °F 10.9 °F 57% 30.10 in 10.0 mi West 5.8 mph - N/A   Clear
11:55 PM 23.0 °F - 10.9 °F 60% 30.12 in 10.0 mi Calm Calm - N/A   Clear